FLOCK 2K-28 (42880 NORAD) Tracking and Keplerian Element Data

This shows tracking and keplerian element data for the satellite.

Feedback or suggestion? Click here.




ElementValue
Catalog42880
NameFLOCK 2K-28
Epoch Orbit3279
Epoch Day45.53083138
Epoch Year2018
RAAN308.1533
Inclination96.993
Eccentricity0.0012475
Argument of Perigee178.2529
Mean Anonmoly181.8761
Mean Motion15.34106852
Decay Rate1.965E-05
L11 42880U 17042BH 18045.53083138 .00001965 00000-0 61608-4 0 9991
L22 42880 96.9930 308.1533 0012475 178.2529 181.8761 15.34106852 32794

Live tracking and technical data element details for FLOCK 2K-28 (NORAD 42880). FLOCK 2K-28 can be tracked NOW for your location showing map with azimuth and elevation plus other details from your city location.

Track the satellite on the map from your city or location and see movement details for azimuth, elevation, latitude, longitude, range, height, and movement on the map or in text.







IsCatalogInMostPopularTable: catalog: 42880, numindb: 138
Update: records affected: 1



GetName: 42880 FLOCK 2K-28

Hit Count: updated at: Mon, 19 Nov 2018 14:08:04 GMT